Погода в Уховском

Россия / Иркутская область     54°24′20″N   101°07′20″E
темп.,
°C
ветер,
м/с
пор.,
м/с
влажн.,
%
обл.,
%
осадки,
мм/ч
давл.,
гПа
погр.,
м
7 марта, вс
вс723:00−9юв359354 0.0 102082
02:00−11юв229571 0.0 101929
05:00−10ююв238481 0.0 101723
08:00−9юв228191 0.0 101821
11:00−5юв3583100 0.0 1015178
14:00−2ююз248398 0.0 1013410
17:00−1ссз1288100 0.0 1013204
20:00−4з2288100 0.0 101621
8 марта, пн
пн823:00−5юз2395100 0.1 101843
02:00−7ссз51094100 1.0 1021578
05:00−9сз31285100 0.1 1024745
08:00−11сз31184100 0.1 1027354
11:00−8зсз377692 0.0 1028539
14:00−5юз127474 0.0 1026698
17:00−5юв348328 0.0 1024503
20:00−9юв4119247 0.0 1024265
9 марта, вт
вт923:00−8юв5149087 0.0 1021407
02:00−8юв4129393 0.0 1018363
05:00−11ююв239791 0.0 101658
08:00−12ююв229381 0.0 101721
11:00−5ююз2388100 0.0 1017123
14:00−1юз139798 0.0 1017239
17:000юз269896 0.1 1018409
20:00−4ссз3119199 0.7 1024580
10 марта, ср
ср1023:00−9сз3118333 0.0 1028334
02:00−14юз118917 0.0 103020
05:00−14ююв128755 0.0 102920
08:00−14юв238874 0.0 102947
11:00−7юв5118577 0.0 1025460
14:00−3юв489239 0.0 1021425
17:00−2юв369212 0.0 1019396
20:00−7вюв23968 0.0 102061
11 марта, чт
чт1123:00−8юв239936 0.0 102042
02:00−4ююв369868 0.0 1019300
05:00−7юв359890 0.0 1017154
08:00−11юв369581 0.0 1016122
11:00−6юв498869 0.0 1011297
14:00−1ююв369558 0.0 1010259
17:000вюв2310059 0.0 1012122
20:00−3ююв229080 0.0 101621